Theta_e
317 318 320 319 317 319 321 324 323 323 321 318 317 318 319 322 322 322 321 321 323 325 326 327 330 329 327 327 325 324 326 330 327 326 332 336 336 335 333 330 330 334 337 337 335 332 328 326 328 330 326 323 321 320 319 316 314 314 314 310 314 325 330 332 332 333 334 333 332 330 329 327 324 320 314 312 315 318 318 317 311 310 311 310 312 312 313 313 312 312 312 311 310 310 310 313 316
316 317 317 317 318 319 323 324 322 321 318 316 316 319 320 321 321 321 322 322 324 324 325 328 329 328 326 325 324 324 325 328 330 333 334 335 336 335 332 330 331 335 337 337 334 331 328 326 327 329 326 323 321 320 320 316 314 314 314 312 314 324 329 331 332 333 333 332 332 330 329 327 325 323 319 315 316 318 319 320 315 314 316 313 313 313 313 314 313 312 313 313 311 310 310 310 311
316 316 317 319 320 320 324 323 320 318 316 315 316 320 320 320 322 321 323 324 325 324 327 329 329 327 324 324 324 323 326 329 333 334 332 335 337 333 333 333 333 337 338 337 335 332 328 326 327 329 327 323 322 321 321 317 314 314 314 313 313 320 327 330 331 332 332 332 332 330 329 327 326 324 322 318 315 318 321 322 320 321 321 317 315 313 312 314 313 312 312 313 311 311 311 310 311
316 317 318 320 323 322 323 323 321 319 316 315 316 319 320 320 322 323 325 325 325 325 328 330 329 327 325 326 324 323 330 332 334 332 330 336 336 330 333 334 335 338 338 337 337 333 327 326 326 328 328 324 322 322 321 318 314 314 314 314 313 316 324 329 331 331 331 332 333 331 329 327 326 324 324 320 315 319 321 321 323 326 324 320 318 316 313 313 312 312 312 312 312 312 311 311 311
316 317 317 320 325 323 323 324 322 319 317 317 317 318 321 321 322 324 325 324 325 326 327 328 329 328 326 327 326 327 331 331 334 333 331 337 335 329 334 335 335 338 338 337 337 334 327 325 327 327 327 324 323 323 321 318 315 315 316 314 313 313 320 327 328 330 330 331 333 331 328 327 326 323 323 322 318 319 319 320 324 327 327 325 323 320 315 314 314 314 315 314 314 314 314 314 313
317 318 317 320 324 323 323 320 318 318 318 319 318 318 320 321 322 324 324 322 323 324 325 327 328 327 327 327 327 328 330 333 335 333 333 335 332 331 334 334 336 337 338 338 337 332 326 326 326 326 326 324 324 323 321 318 316 315 317 316 314 313 318 324 326 329 330 331 333 331 327 326 324 322 320 320 318 316 317 322 324 325 327 328 327 324 318 317 319 317 317 316 315 316 316 316 315
320 322 320 319 322 322 322 319 318 319 318 319 318 319 320 321 323 324 323 322 321 321 323 326 325 325 328 326 327 326 324 332 335 333 333 330 329 334 334 334 336 336 338 337 335 331 326 326 325 325 325 324 325 324 322 319 317 315 316 317 315 313 317 323 326 328 330 331 331 329 326 325 323 320 318 317 315 313 316 321 322 322 325 327 327 326 321 319 320 318 317 317 317 317 318 318 318
320 323 322 321 322 322 322 320 320 320 318 317 318 319 320 322 323 323 322 322 321 321 321 323 324 325 325 324 330 327 320 326 332 331 330 326 329 334 334 335 335 335 338 336 334 331 326 326 325 324 324 324 324 324 322 319 318 316 315 318 317 314 315 319 323 326 329 329 327 325 323 320 318 317 316 315 313 311 315 320 322 321 324 326 326 324 320 317 319 317 317 317 318 318 319 319 320
320 322 321 322 323 321 320 321 321 320 318 317 317 318 320 322 322 322 321 322 321 321 322 322 323 324 323 323 330 329 323 323 327 329 327 326 329 333 334 335 334 335 337 335 335 332 326 325 324 322 322 324 325 324 323 321 319 317 316 317 319 317 315 315 317 321 324 323 321 319 317 314 313 314 314 314 312 309 312 317 320 322 324 325 323 320 316 316 318 317 316 317 318 319 320 320 320
321 321 321 323 322 319 318 319 319 319 318 318 318 318 319 321 322 322 321 321 321 321 322 322 322 322 322 324 329 331 328 322 325 328 326 328 331 333 335 335 335 335 336 336 335 333 327 324 323 321 321 324 325 323 322 322 320 318 317 316 318 320 318 316 315 316 317 316 314 313 311 310 311 311 310 312 312 309 311 315 319 323 323 321 320 316 314 314 315 315 315 316 318 319 320 321 321
322 320 322 323 320 318 317 317 319 319 318 318 318 319 319 321 322 322 322 321 320 322 322 321 321 321 321 323 330 330 326 322 325 326 326 330 333 334 335 335 335 335 335 336 335 333 328 324 323 321 321 324 326 324 322 323 322 319 318 317 317 319 320 320 318 317 315 315 313 311 310 309 308 309 309 310 311 309 311 318 321 322 320 317 316 313 313 313 313 314 315 317 318 320 321 322 322
323 321 322 321 319 319 318 318 318 319 319 318 318 319 319 320 322 322 321 320 320 321 321 320 321 321 320 322 328 324 321 325 326 325 327 331 333 334 335 335 335 334 334 335 334 332 329 326 324 321 322 324 326 325 322 323 323 321 319 318 317 318 319 320 321 320 318 317 315 314 312 309 308 308 308 309 310 309 310 318 321 320 318 316 313 312 312 312 313 314 315 316 318 319 321 322 322
323 322 321 321 321 321 319 318 319 319 318 318 319 318 319 320 321 321 321 320 319 320 320 320 320 320 320 324 327 324 324 328 326 326 327 330 333 334 335 335 334 334 334 334 334 332 330 328 326 323 322 325 327 326 323 323 324 322 320 320 318 318 318 318 319 320 320 318 316 315 315 313 310 308 308 308 309 308 308 314 319 318 317 316 313 312 312 312 313 313 314 315 316 319 321 322 322
322 323 323 321 322 321 319 318 318 317 317 319 320 318 319 320 320 321 320 319 319 319 320 320 319 320 320 322 325 326 330 329 327 327 326 330 334 334 335 334 333 334 333 333 334 332 331 330 329 326 322 325 329 327 325 323 323 323 321 321 320 319 318 318 318 318 319 319 318 316 316 315 313 310 309 308 307 306 308 313 318 318 318 316 315 312 311 312 312 313 313 314 315 317 319 321 322
321 322 323 322 321 319 319 319 317 316 317 319 319 318 319 319 318 320 319 318 318 318 319 318 319 320 319 321 324 328 330 327 326 326 326 331 334 334 334 333 333 334 333 333 334 333 333 331 331 331 325 326 331 329 327 324 322 323 322 323 322 321 320 319 319 318 317 318 318 317 316 316 316 314 311 307 306 306 308 314 318 318 318 317 316 315 313 312 312 312 313 313 313 314 317 319 321
319 322 322 321 320 318 319 319 318 316 318 319 318 319 319 318 317 318 318 318 317 317 318 318 318 319 320 323 329 330 325 322 325 324 326 330 332 333 333 333 334 333 333 333 334 333 333 332 331 334 329 327 332 331 331 328 323 322 323 323 323 322 321 320 320 319 318 317 317 317 317 316 316 316 314 309 306 306 308 314 318 318 319 319 319 319 318 316 314 312 312 312 313 313 315 317 320
317 321 322 320 320 319 319 318 317 317 318 319 318 319 319 318 317 317 317 317 317 317 317 319 318 318 319 319 325 329 323 321 324 324 327 328 331 333 333 334 334 333 334 333 334 333 332 332 331 333 330 329 332 332 333 332 327 324 322 323 323 323 323 322 321 320 319 318 318 317 317 316 315 316 317 313 307 306 308 313 318 318 319 319 320 320 320 320 318 315 312 311 312 313 314 315 318
318 321 321 319 320 320 320 319 318 318 319 318 318 319 319 318 317 316 316 316 317 317 317 318 317 317 318 315 318 322 319 321 324 325 327 327 329 333 333 334 334 334 334 333 334 333 332 332 331 333 332 330 332 332 332 333 331 328 324 324 323 323 323 323 323 322 320 319 318 318 318 318 316 316 316 317 312 307 307 312 316 318 318 319 319 320 320 321 321 320 316 312 311 311 314 315 316
319 321 320 320 322 320 320 319 318 318 318 318 319 319 319 318 318 316 316 317 316 316 316 317 317 318 317 315 316 317 317 321 325 325 326 326 327 330 333 334 334 334 334 334 334 333 333 333 332 334 333 331 331 332 331 332 332 330 328 328 325 322 323 323 324 323 322 321 319 319 322 320 318 317 315 316 316 312 308 310 315 318 318 318 319 319 319 320 321 321 320 318 313 310 315 317 317
320 321 321 321 321 319 319 319 317 317 318 318 319 319 319 318 317 316 316 317 316 316 317 316 317 319 318 316 315 317 316 320 325 326 325 326 325 328 333 333 333 333 333 333 334 334 334 334 333 333 333 331 331 331 330 331 332 331 331 331 328 323 323 323 324 324 323 323 321 322 324 321 317 317 316 316 317 317 312 309 312 316 318 319 319 319 319 320 321 321 321 321 317 314 317 319 319
319 320 320 321 321 319 318 318 317 316 317 318 318 318 318 317 316 316 316 317 316 316 317 316 316 318 319 317 315 316 315 318 324 328 327 328 327 329 333 333 332 332 331 332 332 333 333 334 334 333 333 332 332 332 331 331 332 331 332 333 330 325 323 323 323 323 324 323 322 323 324 320 318 318 316 316 316 317 317 314 311 313 317 319 319 320 320 320 320 321 321 322 321 318 318 317 319
319 319 319 320 320 319 317 316 315 315 316 318 318 317 317 316 316 316 316 317 316 317 316 317 316 316 319 317 315 316 315 315 319 325 327 327 327 329 334 335 333 331 330 330 330 331 331 332 334 333 333 332 332 332 332 331 331 331 332 332 331 328 325 324 323 323 324 324 323 324 324 321 319 318 317 317 316 316 318 318 315 312 315 317 318 319 320 320 320 321 321 321 322 320 319 317 316
318 318 318 317 318 317 316 315 314 314 316 317 318 317 316 316 316 316 317 317 316 317 316 316 316 317 320 317 315 316 315 315 315 318 321 323 324 327 333 336 336 333 329 328 329 330 329 330 332 332 331 331 331 332 333 332 331 331 332 331 330 329 327 325 325 323 323 323 324 324 324 323 321 320 319 318 318 317 317 318 318 316 315 315 316 317 319 320 320 321 321 321 321 320 320 319 315
317 318 318 316 316 316 314 314 313 314 316 316 317 316 316 316 316 316 316 317 316 316 315 315 315 316 319 317 315 315 315 315 315 314 315 318 319 321 329 335 337 334 330 327 328 328 328 328 330 330 330 330 330 331 332 333 332 331 332 331 329 328 327 326 326 325 325 323 323 324 324 324 323 322 321 320 319 319 318 318 318 318 318 317 315 315 316 318 319 320 320 320 320 321 321 320 319
317 317 317 315 315 315 313 313 313 313 314 314 315 316 317 316 316 315 316 317 316 316 315 314 314 314 315 315 314 314 315 316 315 315 314 318 323 325 328 333 337 336 332 329 328 327 326 325 327 327 328 329 329 330 332 333 333 331 332 332 329 327 326 326 326 326 327 325 324 324 324 325 325 324 323 322 321 320 320 319 318 318 318 319 317 316 316 316 317 318 319 320 320 320 321 321 321
317 317 316 315 315 314 312 313 312 312 313 313 315 316 316 314 314 315 317 317 316 316 315 315 314 314 314 315 315 314 314 315 315 315 315 316 323 327 326 326 331 335 334 332 329 327 325 323 324 325 327 328 328 329 331 332 332 331 332 332 330 328 327 326 327 327 328 328 326 325 325 324 325 326 324 323 323 322 322 321 320 319 318 318 319 319 318 317 316 317 318 319 320 320 320 320 321
316 316 316 315 315 313 313 314 313 313 314 313 315 316 315 313 314 316 317 316 316 315 315 315 315 314 315 315 314 314 314 314 315 315 316 316 317 320 319 317 320 327 330 330 327 325 324 321 319 321 325 326 327 329 329 330 331 331 332 332 329 328 329 328 327 327 328 328 328 328 326 326 325 325 326 325 324 324 323 322 322 321 320 319 318 318 319 319 318 317 318 318 319 319 319 320 320
316 316 315 315 315 314 314 314 313 314 314 313 315 316 315 314 314 316 317 316 315 315 315 315 314 315 316 316 314 314 314 314 315 315 315 315 315 315 315 314 314 317 320 321 321 321 321 320 317 318 321 323 325 327 327 328 330 330 331 331 330 328 328 329 329 327 328 329 329 329 328 327 326 326 326 326 324 324 324 323 323 323 323 321 320 319 318 319 319 319 319 318 318 319 319 319 320
316 315 316 315 315 315 314 315 314 315 315 313 315 315 315 315 314 316 316 315 314 314 315 316 315 315 317 319 318 314 314 315 314 315 315 314 315 315 314 315 314 314 314 314 316 317 318 317 316 315 317 319 321 324 325 326 327 329 330 330 330 328 325 328 329 328 328 329 329 329 329 329 328 328 327 327 325 325 325 324 324 323 323 323 322 321 320 319 319 320 319 319 319 319 319 319 320
315 315 316 315 315 315 315 315 314 315 315 313 314 314 315 317 316 316 315 314 314 314 315 316 316 316 317 320 319 315 313 314 314 314 314 314 314 314 314 315 314 314 314 314 314 314 315 315 315 314 315 316 317 319 322 323 323 326 327 327 329 328 325 325 326 328 329 328 328 329 330 330 330 329 329 329 327 326 325 325 325 324 324 323 323 323 322 321 320 320 320 320 320 320 319 319 320
315 315 315 315 314 314 315 315 314 315 314 313 314 313 315 318 317 316 314 314 314 315 316 316 317 317 317 317 316 315 314 314 314 314 314 314 314 314 314 314 315 314 314 314 314 314 314 314 314 314 314 314 315 316 318 319 320 323 323 324 326 325 323 322 322 326 328 327 327 328 329 330 330 330 330 330 329 328 327 327 326 326 325 324 323 323 323 323 323 322 322 322 321 322 321 321 321
315 313 313 315 315 314 314 315 314 315 314 314 314 313 315 317 316 314 313 313 314 315 316 316 316 317 317 316 314 314 314 314 314 314 315 314 314 314 314 314 314 314 314 314 314 314 314 314 314 314 315 314 315 315 316 317 319 321 321 321 323 323 320 319 319 321 324 326 327 327 328 330 330 330 330 330 330 329 329 329 329 328 327 326 325 324 324 323 323 323 323 323 323 323 323 323 323
314 313 313 315 315 314 314 314 314 315 315 314 314 314 315 316 315 313 312 313 313 315 316 316 316 316 316 315 315 314 314 314 314 314 315 315 315 314 314 314 314 314 314 314 314 314 314 314 314 314 315 315 315 315 315 316 317 319 320 320 321 322 321 318 316 317 317 320 324 326 327 328 329 329 329 329 329 329 329 329 329 329 328 328 327 326 325 325 324 324 324 324 324 324 324 324 324
313 313 314 315 315 314 314 314 314 314 315 315 314 314 315 316 317 314 313 313 314 315 315 316 316 316 316 315 315 314 314 314 314 314 315 315 315 315 314 314 314 314 314 314 314 314 314 314 314 314 314 314 315 315 315 316 316 317 319 321 322 323 323 319 316 316 315 315 318 322 324 326 327 328 328 328 328 328 328 328 328 327 327 327 328 327 327 326 326 326 326 325 325 325 325 324 324
313 313 314 315 314 314 314 314 314 314 314 315 315 314 314 316 316 316 315 314 314 315 316 316 316 316 316 316 315 315 314 314 314 314 314 315 315 315 315 315 315 315 315 315 315 314 315 314 314 314 314 314 314 315 315 315 317 317 318 321 322 322 323 322 319 317 316 315 315 316 318 320 322 324 325 326 326 327 327 327 327 326 325 325 326 326 325 324 324 325 325 325 325 325 325 325 325
315 314 314 314 313 313 314 314 313 314 314 314 315 315 315 315 316 316 316 315 315 316 316 316 316 316 316 316 316 316 315 314 314 314 314 315 315 315 315 315 315 315 315 315 315 314 315 315 315 315 314 314 314 314 315 315 316 318 319 320 320 319 320 321 320 318 316 315 315 315 315 316 318 321 322 324 325 325 325 325 326 326 325 325 326 326 325 323 322 323 324 325 324 323 324 324 325
315 316 314 314 313 312 314 314 312 313 314 315 315 315 315 316 315 317 317 316 316 316 316 316 316 316 316 316 316 316 316 315 314 314 315 315 315 315 315 315 315 315 315 315 315 315 315 315 315 315 315 315 315 314 315 315 315 316 317 318 317 317 319 319 319 318 317 316 316 315 315 314 316 319 321 325 327 327 325 324 324 324 324 324 325 326 326 325 323 322 323 325 324 322 322 323 323
315 315 314 314 314 314 314 314 312 313 313 314 316 315 315 316 316 316 317 317 317 317 317 317 317 317 317 317 317 317 316 316 315 315 315 315 315 315 315 315 315 315 315 315 315 315 315 315 315 315 315 315 315 315 315 315 315 315 315 316 316 317 319 319 318 317 317 318 318 317 315 315 316 318 321 324 327 328 328 327 324 322 323 324 325 326 327 326 323 322 323 325 325 323 322 322 323
314 315 314 313 314 314 313 313 313 312 313 314 316 315 315 316 316 317 317 317 317 317 317 317 317 317 317 317 318 318 318 316 316 315 315 316 316 316 315 315 315 315 315 315 315 315 315 315 315 315 315 315 315 315 315 315 315 315 315 316 316 317 319 319 318 318 318 319 319 318 316 314 316 319 322 325 327 330 330 327 324 322 323 325 327 328 328 326 322 321 323 324 326 325 324 323 322
314 315 313 314 316 314 313 314 313 312 312 313 315 315 315 316 316 316 317 318 318 318 318 318 318 318 318 318 318 319 319 317 316 316 316 316 316 316 316 316 316 316 315 315 315 315 315 315 315 315 315 315 315 315 315 315 315 315 316 316 317 321 323 322 319 319 319 319 320 319 317 314 316 319 322 324 327 330 329 325 323 324 324 324 325 326 327 325 322 322 323 324 325 326 326 324 323
316 317 315 315 316 315 314 314 313 313 313 313 314 314 314 315 315 315 317 318 318 318 317 317 317 317 317 317 318 318 318 317 316 317 316 316 316 316 316 316 316 316 316 316 315 315 316 315 315 315 315 315 315 315 315 315 315 315 316 316 317 320 322 322 321 320 319 320 320 319 318 317 318 319 320 322 325 325 324 324 326 328 327 324 323 321 322 323 323 324 325 326 327 327 327 326 326
315 318 317 315 315 315 315 315 314 314 314 314 314 312 312 315 316 316 317 317 316 317 316 316 316 316 316 315 316 316 316 316 316 316 316 316 316 316 316 315 316 316 316 316 316 316 316 316 315 315 315 315 315 315 315 315 315 315 315 315 316 318 318 318 318 318 318 319 320 320 322 322 321 320 320 320 322 321 322 324 326 328 327 326 325 323 322 323 325 326 325 326 328 328 327 326 326
314 317 317 315 315 316 316 317 315 313 314 314 313 313 312 315 316 317 317 316 315 316 316 316 316 316 316 315 314 314 315 315 315 315 315 315 315 315 315 315 315 315 315 315 315 315 316 316 316 316 315 315 315 315 315 315 315 315 315 315 315 316 316 316 316 316 317 317 317 319 322 322 321 319 319 320 321 323 324 323 322 323 325 327 328 328 326 324 326 328 328 328 328 326 325 325 325
315 317 317 315 316 317 317 317 315 314 315 314 314 315 313 313 316 317 316 315 315 316 316 317 316 316 317 315 314 313 313 313 314 314 314 314 315 315 315 315 315 315 315 315 314 314 314 315 315 316 316 316 315 315 315 315 315 315 315 315 315 315 316 316 316 316 316 316 316 317 318 319 318 318 318 319 320 322 323 322 320 320 324 328 329 330 328 325 324 326 328 327 324 321 321 323 323
316 315 316 316 317 318 317 317 315 315 315 313 315 317 313 311 315 316 315 314 315 315 315 317 318 317 317 315 314 313 313 313 313 313 313 313 314 314 314 314 314 314 314 314 314 313 314 314 314 315 315 316 315 315 315 315 315 315 315 315 315 315 316 316 316 316 316 316 317 317 318 318 318 319 319 319 320 322 323 323 321 321 325 328 329 329 328 325 322 323 324 322 320 319 320 323 324
314 313 315 316 317 318 317 316 315 315 313 313 316 317 312 311 313 315 315 314 314 316 316 317 318 317 316 316 315 314 314 314 314 314 314 313 314 313 313 314 313 314 314 314 314 314 314 314 313 314 314 315 315 315 314 314 314 314 315 315 315 315 316 316 316 316 316 317 318 320 321 321 321 322 322 322 322 323 323 322 321 322 325 327 326 325 323 321 321 322 323 321 319 321 324 326 326
314 315 316 315 315 315 315 315 314 314 313 314 315 316 313 311 312 314 316 315 314 316 315 316 316 316 316 316 315 314 314 315 315 314 314 314 314 314 314 314 313 314 314 314 314 314 314 314 314 314 314 314 314 314 314 314 314 314 314 315 315 315 316 316 316 316 316 317 318 319 321 321 321 321 322 322 322 322 321 321 321 322 323 323 322 321 320 320 321 322 322 321 319 319 322 325 326
315 317 315 314 315 314 313 314 314 313 313 312 311 314 314 311 312 314 315 314 313 314 314 315 316 317 318 317 315 314 314 315 315 314 314 313 314 314 314 313 313 314 314 314 314 314 314 314 314 314 314 313 313 313 314 313 313 314 314 315 315 315 315 316 316 317 317 317 318 318 318 319 319 319 319 319 319 320 319 320 320 321 321 321 320 320 319 320 320 320 321 321 319 319 320 322 322
315 315 314 313 314 314 314 314 314 313 313 310 309 312 314 312 312 314 315 314 314 313 314 315 315 316 317 316 315 314 314 316 316 314 313 313 313 313 313 313 312 313 314 314 315 315 315 314 314 314 313 313 313 313 313 313 313 314 314 315 315 315 316 316 316 317 317 317 317 317 317 317 318 318 318 318 318 318 318 318 319 319 319 319 319 319 319 319 319 319 319 319 319 319 320 320 319
314 315 314 313 313 314 315 315 314 313 312 309 309 311 313 312 313 315 315 315 314 313 313 313 313 313 313 314 314 314 314 316 317 315 314 314 314 314 314 314 314 315 315 316 316 315 315 315 314 314 313 313 312 313 313 313 314 314 314 315 315 316 316 316 317 317 317 317 316 316 316 316 316 316 316 317 317 317 317 317 316 316 316 316 317 318 318 318 318 318 318 317 317 317 317 316 315
316 318 315 313 314 315 314 314 315 314 312 310 309 311 312 312 313 315 315 314 313 312 312 312 312 312 312 312 313 314 314 316 317 316 316 316 316 316 317 316 317 317 317 317 316 316 315 315 315 314 314 313 313 313 313 313 314 314 315 315 316 316 317 317 317 317 316 316 316 316 316 316 316 316 316 316 316 316 315 315 315 315 315 315 315 315 316 316 316 316 316 315 315 315 315 315 315
314 316 315 314 315 314 313 312 312 312 312 311 311 311 313 314 315 315 315 315 313 312 311 310 311 312 312 312 314 314 315 316 317 317 317 317 317 317 317 317 317 317 317 317 316 316 315 315 315 314 314 314 314 314 314 315 315 315 315 316 316 317 317 317 317 316 316 316 316 316 316 316 316 315 316 316 316 316 315 315 315 315 315 315 314 315 314 314 314 314 314 314 314 314 315 315 315
313 313 313 313 314 314 312 310 309 309 311 313 313 313 313 313 315 315 316 315 313 312 311 311 312 312 312 312 314 314 314 316 317 316 316 317 317 317 317 317 317 317 317 317 317 316 316 315 315 315 315 315 315 315 315 316 316 316 316 317 317 317 317 316 316 316 316 316 316 316 316 316 316 316 316 316 315 316 315 315 315 315 314 314 314 314 314 314 314 314 314 314 314 314 314 314 314
313 313 313 312 312 313 311 311 311 310 311 312 313 313 312 311 313 314 314 313 314 313 312 311 312 312 312 313 314 314 314 315 316 316 316 316 316 316 317 317 317 317 317 317 317 317 317 317 316 316 316 316 317 316 317 317 317 317 317 317 316 316 316 316 316 316 316 316 316 316 316 316 316 316 315 315 315 315 315 315 315 315 314 314 314 314 314 314 314 314 314 313 313 313 313 313 313
313 313 314 313 313 313 311 312 313 312 313 313 312 312 311 311 312 313 313 313 313 314 313 312 312 313 314 315 315 314 314 315 316 316 316 316 316 316 316 316 316 317 317 317 317 317 317 317 317 317 317 317 317 316 317 316 317 316 316 316 316 316 316 316 316 316 316 316 316 316 316 316 316 316 315 315 315 315 315 315 315 315 315 315 314 314 314 314 314 314 314 313 313 313 313 313 313
311 311 312 313 314 313 312 313 312 312 313 312 312 312 311 313 313 313 313 313 313 313 313 314 313 314 315 315 314 313 314 315 315 315 316 316 316 316 316 316 316 316 316 316 317 316 317 316 316 316 316 316 316 316 316 316 316 316 316 316 316 316 316 316 316 316 316 316 316 315 315 315 315 315 315 315 315 315 315 315 315 315 315 315 315 314 314 314 314 314 314 313 313 312 313 312 312
312 312 312 312 313 312 312 313 312 312 312 312 313 312 312 313 314 313 313 313 313 314 314 315 315 314 313 313 313 313 313 314 314 314 314 315 316 316 316 316 316 316 316 316 316 316 316 316 316 316 316 316 316 316 316 316 316 316 316 316 316 316 316 316 316 316 316 316 315 315 315 315 315 315 315 315 315 315 315 315 315 315 315 315 315 314 314 314 314 314 313 313 312 312 312 312 312
314 313 313 313 313 312 313 314 313 311 311 311 312 312 312 314 314 313 313 312 312 313 314 315 314 312 311 312 312 313 313 313 314 313 313 314 315 316 316 316 316 316 316 316 316 316 316 316 315 316 316 315 316 315 316 316 315 316 316 316 316 316 316 316 315 316 315 315 315 315 315 315 315 315 315 315 315 315 315 315 315 315 314 314 314 314 313 313 313 313 313 312 312 312 312 312 312
Wind_Speed
7 7 7 6 3 3 5 4 4 3 4 3 3 2 5 4 4 7 8 7 6 7 4 6 9 5 2 4 4 5 9 8 6 3 1 10 15 13 12 13 16 15 13 11 10 9 8 9 10 8 8 7 7 8 10 10 10 10 11 12 14 16 14 12 11 9 8 7 7 9 10 11 12 11 11 11 11 10 10 10 11 12 13 13 12 13 13 13 13 14 14 14 14 14 14 13 11
7 6 5 3 3 4 4 3 4 3 4 3 3 1 7 6 5 7 8 6 6 9 6 7 9 5 2 3 1 2 7 10 9 8 9 16 16 13 13 13 15 15 12 11 10 9 9 9 10 9 8 7 7 8 9 10 10 10 11 11 13 15 14 12 10 9 7 6 6 7 8 10 11 11 11 11 10 11 11 11 12 12 13 14 14 13 13 13 14 14 14 14 15 15 14 13 12
9 8 7 4 3 5 4 4 5 3 4 2 4 4 7 6 6 7 8 9 11 11 8 8 8 5 1 2 1 2 5 7 8 10 15 16 13 16 15 14 16 13 12 12 10 9 9 10 10 9 8 7 7 8 9 10 10 10 11 10 11 14 14 11 10 9 7 6 5 5 7 9 11 11 11 10 10 11 11 11 12 13 13 14 15 14 13 13 14 14 14 14 15 14 14 14 13
10 10 9 5 5 5 5 5 4 4 3 1 4 6 6 6 7 10 11 11 12 11 8 10 7 4 4 1 2 2 6 6 7 9 17 13 10 19 17 15 15 12 12 11 10 9 9 10 10 9 7 7 7 7 8 9 10 10 11 10 9 12 14 12 10 9 7 6 4 4 7 9 10 10 10 9 9 10 10 11 12 13 12 13 14 14 14 13 13 13 14 14 14 14 14 14 14
11 10 9 6 5 3 3 3 3 5 1 1 3 7 7 6 9 10 11 10 10 9 8 9 5 4 5 2 4 2 6 6 7 10 16 12 11 20 17 16 14 11 13 11 10 9 10 10 9 9 7 6 7 7 7 9 10 10 10 10 9 10 13 12 10 9 7 6 4 4 5 7 9 10 9 9 9 9 10 11 11 12 12 12 13 13 14 12 12 12 13 13 14 14 14 14 14
9 7 7 6 5 2 3 3 4 4 2 4 2 7 7 6 10 12 11 10 7 6 6 8 3 3 5 2 1 2 5 5 7 11 15 12 15 19 16 17 14 12 12 11 10 8 11 11 9 9 7 6 7 6 6 8 9 9 9 10 10 10 12 12 10 9 7 5 3 2 4 6 8 9 10 9 8 9 11 11 10 11 12 12 12 12 12 12 12 12 13 13 14 13 14 14 14
8 5 6 6 4 3 5 5 4 3 3 4 3 5 8 8 11 13 12 9 5 5 6 7 3 2 4 4 3 3 5 6 8 13 14 15 19 16 15 16 13 13 12 11 10 9 12 11 10 9 7 6 6 6 6 7 8 9 9 9 10 10 11 10 9 9 7 5 2 1 4 5 7 8 9 9 8 9 11 10 9 9 10 11 11 10 10 11 11 12 13 13 13 13 13 13 13
10 5 6 5 4 4 6 4 2 1 3 3 2 2 5 10 12 12 10 8 6 7 8 6 5 5 4 4 3 3 7 8 10 17 16 17 20 16 16 15 13 14 11 12 10 10 12 11 10 8 7 6 6 6 6 6 7 8 9 9 10 10 9 8 7 7 7 5 2 2 4 5 6 7 8 8 8 8 10 10 8 8 9 9 8 7 8 9 10 11 12 13 13 13 13 13 12
6 4 5 5 4 5 5 4 1 2 3 3 3 2 3 9 11 11 9 7 7 8 9 8 6 4 5 6 4 3 8 8 12 18 19 19 20 17 16 15 13 14 12 12 11 11 12 11 10 8 7 6 6 6 6 6 6 7 8 8 8 9 9 7 6 6 5 3 1 2 4 5 5 5 6 6 7 7 8 8 8 8 9 8 7 8 9 10 10 11 11 12 12 13 12 11 11
7 6 4 5 4 5 5 4 2 2 5 3 3 5 6 9 9 10 10 7 8 9 8 7 5 3 2 5 6 4 6 8 14 19 20 19 19 16 15 15 13 14 14 12 11 10 12 12 10 9 8 7 7 6 6 6 6 6 7 8 7 8 9 8 7 6 4 3 2 3 4 4 5 5 5 5 6 7 7 7 8 9 9 9 9 10 10 10 10 10 10 11 11 12 11 10 10
6 8 4 4 5 5 5 4 4 3 5 3 3 7 8 10 9 9 9 7 8 8 9 7 5 4 3 3 5 3 6 9 16 20 22 19 17 15 15 15 14 13 14 13 12 10 11 12 10 9 9 8 8 6 6 6 6 6 6 7 7 7 7 8 8 7 5 5 5 5 5 5 6 5 5 5 6 6 7 7 9 9 9 9 10 10 10 10 10 10 9 10 10 11 11 9 9
4 7 4 5 6 5 3 3 4 4 5 4 6 8 7 11 9 8 9 7 9 7 9 10 3 5 5 3 4 4 7 11 17 21 21 18 16 15 14 15 14 13 13 14 13 11 11 12 11 9 9 9 8 7 6 7 6 5 5 6 6 6 6 6 7 7 6 6 6 7 6 6 6 6 7 6 6 7 7 8 9 9 9 9 9 9 9 10 10 10 9 9 9 10 10 9 8
5 5 6 5 3 2 2 2 4 4 4 5 7 9 9 11 10 9 9 7 9 7 9 10 3 4 4 5 6 5 9 13 18 21 20 18 15 14 13 14 15 14 13 15 14 13 12 11 10 9 9 9 8 6 6 7 6 6 5 5 6 6 5 5 5 6 6 6 6 7 7 6 6 7 7 7 7 7 7 7 8 9 9 9 10 9 10 10 10 10 9 9 9 9 9 8 7
6 4 5 3 1 2 2 2 4 4 4 6 8 11 11 10 9 8 8 7 8 5 8 10 4 4 4 5 7 9 12 16 19 21 21 18 14 14 14 13 15 14 13 14 13 13 13 11 10 9 9 9 7 6 5 6 6 6 6 5 5 5 5 4 4 5 4 5 6 7 6 6 6 7 8 8 8 7 7 7 8 9 9 9 9 9 9 10 10 10 10 9 9 9 8 7 7
7 4 4 2 2 4 3 1 4 5 4 9 9 13 12 7 5 6 7 5 5 5 7 9 8 3 1 2 6 11 15 19 21 21 22 18 14 14 15 14 15 15 14 14 13 13 13 12 11 9 9 8 7 5 5 5 5 6 6 5 5 5 5 4 4 4 3 4 4 5 5 5 6 6 7 8 7 7 7 7 8 8 8 9 9 9 9 10 10 10 10 10 9 9 7 7 7
9 5 4 3 4 5 4 3 4 4 4 10 10 13 11 6 6 6 6 2 4 7 6 6 10 4 3 4 9 12 15 19 22 22 24 20 15 14 15 14 14 15 15 15 14 13 14 13 13 11 9 9 8 7 6 6 5 6 6 6 5 5 5 4 3 3 3 3 3 4 4 5 5 5 6 7 7 6 7 7 7 7 7 7 8 8 9 9 9 9 9 9 9 8 7 6 6
9 5 5 4 5 5 6 6 4 3 7 10 11 13 11 7 7 6 6 5 2 6 6 4 10 8 1 4 11 12 14 19 22 22 25 22 16 14 15 16 15 15 15 16 15 14 14 14 14 12 11 11 9 9 8 7 7 6 6 6 6 5 5 4 3 2 2 2 2 3 3 4 4 4 5 6 6 6 6 6 6 6 6 6 6 7 7 8 8 8 8 8 8 7 7 6 5
7 4 5 5 6 5 5 7 3 2 8 10 12 15 11 8 9 7 6 7 5 5 7 7 9 10 7 5 9 12 15 21 23 22 25 24 20 16 15 16 16 16 16 16 16 15 15 14 15 13 13 14 11 10 9 8 8 7 7 6 6 5 5 5 4 3 2 2 2 2 2 3 4 4 4 4 4 4 5 5 5 4 4 4 4 5 6 6 6 7 7 7 6 6 6 5 4
7 4 5 6 4 3 2 4 3 2 6 12 12 13 10 7 11 10 7 9 9 7 8 9 8 10 11 8 9 13 17 22 23 23 25 26 25 21 18 17 15 16 16 16 16 15 15 14 15 14 14 15 14 12 11 10 9 7 7 8 7 6 6 5 4 4 3 2 2 1 1 1 2 3 3 3 3 3 3 4 4 3 3 3 2 3 4 4 5 5 5 6 5 5 4 3 3
7 5 6 4 4 6 3 4 5 4 5 12 13 11 8 6 10 11 8 8 10 10 9 11 11 12 13 12 11 13 18 22 24 24 25 27 27 24 21 19 18 17 16 15 14 14 15 14 15 15 15 15 14 14 14 12 9 9 8 9 9 8 7 6 6 5 4 3 2 2 1 1 2 2 2 2 1 1 2 3 3 3 2 2 1 1 1 2 3 3 4 4 4 4 2 1 1
5 5 4 2 6 5 4 5 6 5 4 9 12 11 9 7 9 10 8 7 8 11 11 11 13 14 15 15 12 13 18 22 24 24 25 26 27 25 22 20 20 20 19 17 15 14 15 14 14 16 16 15 15 14 15 13 12 11 11 10 10 9 9 8 8 7 6 5 4 3 3 2 1 1 1 1 1 0 1 2 3 3 3 3 2 2 1 1 1 2 3 3 3 3 1 1 1
4 4 3 4 3 3 6 5 5 6 4 8 11 10 10 9 8 11 11 8 3 6 9 10 10 11 15 18 14 14 18 21 24 25 26 27 28 27 22 19 19 20 21 20 18 16 17 16 14 15 16 16 16 14 14 14 14 13 12 13 12 10 10 10 9 9 8 7 6 5 4 3 2 2 1 1 2 2 2 2 2 4 4 4 4 4 3 2 2 2 3 3 3 3 3 2 2
5 4 1 4 3 3 6 4 6 6 3 7 9 8 9 9 9 10 13 10 2 4 7 10 9 8 12 17 16 15 17 20 23 24 26 27 28 28 24 20 19 21 24 23 22 19 18 18 16 16 17 17 17 15 14 14 15 13 13 15 14 11 11 11 10 10 10 9 8 7 6 5 4 4 2 2 2 2 3 3 4 5 6 6 6 6 5 4 4 4 4 3 3 4 4 4 4
7 3 6 2 5 4 5 4 7 6 3 5 6 6 9 10 8 6 14 13 4 3 6 8 9 10 12 14 15 16 16 17 19 21 23 24 25 26 25 21 18 21 24 24 23 22 21 20 19 19 18 18 18 17 15 14 15 14 14 16 16 15 14 13 12 12 12 11 10 9 7 7 7 6 5 3 3 4 4 4 5 6 7 8 7 7 7 6 6 6 6 5 5 5 6 6 6
10 3 6 4 4 4 4 4 6 5 4 5 5 6 7 8 5 4 13 14 9 11 7 6 6 10 14 14 14 16 17 17 18 20 22 23 23 24 25 23 19 19 23 23 23 23 22 22 22 21 20 19 19 18 17 15 14 16 15 16 17 18 17 15 14 14 13 12 11 11 10 9 8 8 7 6 5 5 5 5 6 7 8 9 9 9 9 8 8 8 8 7 7 7 7 7 7
7 4 7 6 5 4 4 3 5 4 4 5 6 7 4 4 5 7 13 12 11 15 13 11 7 7 12 15 15 15 17 18 19 20 21 23 24 24 26 26 24 22 21 22 23 23 22 23 24 24 22 21 20 19 18 17 15 16 16 17 19 19 18 17 17 17 15 14 13 13 12 11 11 9 9 9 8 7 7 7 7 7 8 9 10 10 10 10 10 10 10 10 9 9 9 9 9
4 8 8 6 5 4 3 3 4 4 4 6 6 5 3 3 5 6 9 13 15 15 14 16 14 10 10 13 15 16 17 17 18 19 20 23 26 26 27 27 27 26 24 23 24 24 23 23 23 24 24 23 22 20 19 18 17 17 16 17 19 19 19 18 19 19 17 16 15 14 13 13 13 12 11 11 11 10 9 9 9 9 9 10 10 11 11 11 11 12 12 12 12 11 11 11 10
7 11 9 6 5 4 3 3 5 3 3 6 4 3 3 4 5 5 7 12 15 15 14 16 18 15 11 12 15 16 17 18 19 21 22 23 24 25 25 26 26 26 26 25 25 24 23 23 22 22 24 25 24 22 20 19 18 17 16 17 18 19 20 19 20 19 18 18 17 15 15 14 15 14 13 13 13 13 12 11 11 10 10 11 11 11 11 12 12 13 13 13 13 13 13 13 12
8 10 6 6 4 5 4 3 5 3 3 7 3 3 6 7 11 10 9 10 10 13 13 14 18 17 14 13 15 17 18 19 22 23 22 21 20 21 22 22 23 23 23 24 24 24 23 23 22 21 22 24 24 24 22 21 19 18 18 18 18 18 19 20 21 20 20 19 18 17 16 16 16 16 16 15 14 15 15 14 14 13 13 12 12 13 12 13 13 13 13 13 14 14 14 15 14
8 7 4 6 5 6 6 4 4 3 4 8 4 4 7 12 15 12 12 12 10 12 11 12 15 16 15 15 18 20 19 21 23 23 21 20 19 19 20 21 21 21 21 23 24 23 23 23 23 22 21 22 23 23 23 22 21 19 19 19 19 20 20 20 22 22 21 21 19 18 18 17 18 17 17 17 16 17 17 17 16 16 15 14 14 14 14 14 15 15 14 14 15 15 15 16 16
6 5 4 5 6 5 6 5 6 5 6 8 5 5 6 6 12 11 12 14 12 11 11 11 12 13 16 18 21 22 22 22 22 21 22 21 20 20 21 21 22 21 22 23 22 21 21 22 23 22 21 21 21 22 22 22 21 19 19 19 19 21 22 22 22 22 23 23 21 19 19 19 19 19 18 18 18 18 19 19 18 18 16 15 16 16 16 16 16 16 16 15 16 16 16 17 17
5 5 5 7 6 4 6 5 6 3 5 8 6 5 7 3 10 7 10 14 13 11 11 11 11 11 13 18 22 22 23 23 22 21 22 22 23 23 22 23 23 22 22 22 21 21 22 22 22 22 21 21 21 21 21 22 21 19 19 19 19 20 22 23 23 23 24 24 23 22 21 21 21 21 20 20 20 20 21 20 19 18 16 15 17 17 17 18 18 18 18 17 17 18 17 18 19
5 6 5 7 8 5 5 4 4 2 3 9 9 5 6 3 8 5 8 11 12 12 12 12 11 12 12 14 18 22 23 24 24 24 23 23 24 24 24 23 23 22 22 22 21 22 22 23 22 22 22 21 21 21 21 21 22 21 20 19 19 20 22 22 22 24 24 23 24 24 23 23 24 24 23 22 22 22 22 21 20 20 18 16 18 18 17 17 18 19 20 20 19 19 20 21 21
6 6 4 4 7 6 4 3 4 5 4 8 10 8 10 4 6 7 7 9 11 12 12 12 11 12 13 13 16 20 22 24 26 26 24 24 24 24 25 24 24 23 23 23 23 23 23 24 24 23 23 22 22 22 21 21 21 21 20 19 19 20 21 22 22 23 23 22 23 24 24 24 24 24 23 23 23 23 23 22 22 22 21 19 20 20 19 19 20 21 21 21 21 21 23 24 24
8 8 5 3 5 5 4 3 5 7 7 7 10 11 14 12 6 7 9 9 9 10 10 10 10 11 12 13 16 19 21 24 26 26 25 25 24 24 25 26 26 26 25 25 24 24 24 26 26 25 25 24 24 23 23 22 21 20 20 18 19 20 20 22 23 24 24 23 22 23 23 23 23 22 22 21 21 21 22 22 23 25 23 21 22 21 19 20 22 22 21 21 22 23 24 26 26
10 10 8 5 5 5 3 4 4 5 6 9 12 11 12 13 12 9 9 11 10 10 10 10 10 11 11 13 15 17 21 25 26 25 25 26 26 25 26 27 27 27 27 26 26 26 27 27 28 28 27 26 26 26 25 25 24 22 21 20 21 21 22 22 23 24 24 23 23 22 22 22 21 21 19 17 16 17 18 20 22 25 24 22 22 21 19 19 20 21 20 21 23 23 23 25 27
7 8 8 6 6 5 4 6 3 2 4 8 11 12 12 13 12 12 11 11 11 12 13 13 13 13 13 14 16 18 22 25 25 24 24 25 25 26 27 28 29 29 29 29 28 28 28 29 29 30 29 28 28 28 28 28 27 26 25 25 24 23 22 22 23 24 24 24 23 22 21 20 20 19 18 16 16 17 17 18 20 22 22 21 22 22 20 20 20 20 20 21 22 22 21 23 25
4 6 6 6 5 3 5 5 4 3 3 6 8 10 13 13 12 13 14 13 14 16 16 17 18 17 16 16 18 20 21 23 24 25 25 24 24 26 28 30 31 32 31 31 31 31 30 30 30 31 30 30 30 30 30 30 29 28 26 25 25 23 22 22 22 22 23 23 23 23 21 20 21 20 19 18 18 19 20 20 20 20 19 20 22 22 23 22 21 21 22 23 23 24 23 23 25
3 4 5 5 4 4 4 4 5 4 3 3 3 6 11 12 13 14 15 16 17 19 19 19 19 19 19 18 19 20 22 25 27 27 25 24 23 25 28 30 31 32 32 32 32 32 32 32 32 32 32 32 32 31 31 30 29 28 27 25 24 22 21 22 22 21 22 22 22 23 21 21 21 21 19 18 19 22 23 22 21 20 19 21 22 23 24 24 23 22 22 24 25 26 27 27 28
4 4 5 3 3 3 2 4 5 3 3 3 4 6 9 11 12 13 17 19 18 17 17 18 18 19 19 18 18 18 20 26 28 28 27 26 25 26 28 29 29 30 32 33 33 33 33 34 34 34 33 33 32 31 31 30 29 28 27 27 24 20 19 21 21 21 22 21 21 21 20 20 21 22 21 20 20 24 26 23 20 19 20 22 23 24 25 25 24 25 25 26 28 30 30 31 32
5 4 5 2 4 3 2 4 5 2 3 2 5 7 8 10 12 12 13 14 14 13 14 16 19 23 23 22 23 23 23 26 27 28 28 28 28 29 29 29 29 30 31 32 32 32 33 34 34 34 34 33 32 31 30 29 30 29 28 28 26 23 22 22 21 21 21 20 20 20 20 20 21 22 22 22 22 23 24 22 21 22 22 21 21 22 23 24 24 25 27 28 31 33 34 34 36
5 5 4 1 2 4 5 6 5 2 4 2 2 5 5 5 10 11 7 6 9 10 11 16 19 21 24 27 30 30 30 30 29 29 29 30 30 30 31 31 32 32 32 32 33 33 33 33 33 33 34 33 32 31 30 29 30 29 29 29 29 27 27 26 25 24 22 20 19 19 18 18 19 19 20 21 21 20 21 22 23 25 25 24 22 21 23 24 26 27 27 29 31 33 34 37 40
4 3 2 1 1 4 6 6 4 2 2 2 2 5 4 2 5 6 5 4 7 8 9 13 15 14 16 22 25 27 29 30 30 31 31 32 32 32 32 32 33 34 34 35 36 36 36 34 33 33 34 34 33 32 31 30 30 30 30 30 30 28 27 27 25 23 22 21 20 19 19 20 20 19 19 20 20 19 20 21 22 22 24 26 26 26 27 27 29 31 30 31 33 32 32 36 38
2 1 1 4 3 4 6 5 4 2 1 2 3 3 4 6 4 2 3 4 8 8 9 12 14 12 12 14 16 18 21 23 25 27 28 30 31 31 31 32 33 34 36 37 38 39 39 38 36 35 34 34 34 32 31 30 30 30 30 30 30 29 27 25 23 20 19 20 21 20 21 22 22 20 20 20 19 18 19 22 23 22 23 25 27 29 30 30 32 32 30 31 33 32 31 32 32
0 1 1 3 2 3 5 5 3 1 1 4 5 4 4 7 4 3 3 6 9 9 10 10 9 9 8 7 9 11 14 16 19 21 23 24 26 27 27 28 29 30 32 34 36 38 39 40 40 39 37 36 35 33 32 31 30 30 30 30 29 29 27 24 22 20 19 19 19 20 20 20 20 19 19 19 19 20 22 24 24 23 24 25 26 29 32 34 33 31 30 29 29 29 29 30 32
3 4 4 6 3 3 2 3 2 1 4 6 5 6 5 6 4 4 4 5 7 8 8 5 4 5 5 4 5 7 10 12 15 17 19 21 23 24 24 25 25 25 26 28 29 31 33 36 39 40 40 39 38 36 34 33 32 31 30 29 29 29 26 23 21 20 20 20 19 18 17 16 16 17 19 20 21 23 25 26 25 23 24 26 28 31 33 33 30 28 28 28 28 28 29 30 33
8 6 6 7 4 3 1 1 1 3 5 3 2 3 4 5 4 5 3 2 3 4 4 3 5 4 3 3 2 3 6 10 13 15 17 19 21 23 23 24 24 23 22 21 20 21 22 26 30 35 39 40 39 38 35 34 33 32 30 29 28 28 24 21 21 21 21 21 19 17 16 15 16 17 19 21 22 24 25 25 24 23 25 27 29 30 31 30 28 27 27 29 30 30 31 32 33
5 4 6 5 3 3 2 3 2 5 5 1 2 1 3 5 4 2 1 2 1 1 2 3 4 4 4 3 1 3 6 9 10 11 13 15 17 20 21 22 22 21 19 17 16 16 16 17 20 25 31 36 37 36 34 33 32 31 29 29 28 25 22 21 21 21 21 20 19 18 17 17 18 19 20 22 23 23 23 24 24 24 26 28 29 29 29 29 30 29 29 31 32 32 33 34 35
3 5 7 5 4 4 4 4 4 5 3 2 1 1 3 7 8 6 6 6 2 2 3 2 2 3 3 1 1 5 7 7 7 6 7 8 10 13 14 15 17 17 16 15 14 14 14 14 14 17 22 27 31 32 32 31 30 29 28 28 26 23 21 21 21 21 20 19 19 18 17 18 19 20 20 21 21 21 21 22 23 25 26 27 28 29 30 31 31 31 31 33 33 34 34 34 35
6 7 7 5 5 4 5 6 4 4 1 1 1 0 3 6 7 9 11 7 1 1 3 4 5 5 5 6 5 4 5 6 4 3 2 2 4 5 7 8 10 12 12 12 12 13 13 12 13 15 17 21 24 26 28 28 27 27 27 25 23 22 21 21 21 20 19 18 18 17 16 17 18 19 19 19 18 19 20 21 22 23 25 26 27 29 30 32 33 34 34 34 35 35 35 35 36
4 2 2 4 4 3 5 4 3 2 2 1 2 2 4 4 1 2 6 4 2 3 6 7 10 11 10 9 6 2 3 3 2 1 1 2 3 3 4 6 7 8 8 8 9 10 11 11 12 13 15 16 19 21 23 24 25 25 24 22 21 20 20 20 20 19 17 16 16 15 16 16 17 17 16 16 16 17 18 20 21 23 24 25 27 28 30 31 33 34 35 36 36 35 35 36 37
2 1 0 3 2 0 1 0 0 1 1 2 4 3 5 4 4 6 7 5 4 5 4 5 7 7 6 6 5 3 2 1 0 1 2 2 3 4 4 5 5 6 6 6 7 8 9 10 11 12 13 14 16 18 19 21 22 21 20 19 19 20 19 19 18 16 15 14 14 14 14 13 13 13 13 14 15 17 18 19 21 23 24 25 26 27 28 30 31 33 35 36 36 36 37 38 38
2 1 2 2 1 3 3 1 2 0 4 3 4 4 5 4 6 8 7 5 4 5 4 4 5 5 5 5 6 5 3 2 2 2 4 4 4 4 4 4 4 4 5 6 7 8 9 9 10 11 12 13 15 16 17 18 18 18 18 19 19 18 18 17 15 13 12 12 12 12 11 11 11 12 13 15 16 17 18 19 20 21 22 24 25 27 28 29 30 32 34 35 36 36 37 39 39
2 3 4 4 1 1 1 2 1 2 5 3 4 6 6 3 3 2 2 3 2 5 3 1 3 5 5 7 9 7 4 4 3 4 5 5 5 4 4 4 4 4 5 6 6 7 8 9 10 11 11 12 13 14 15 15 16 17 17 17 16 15 14 13 12 10 10 11 10 10 10 11 12 13 15 16 16 17 18 19 21 22 23 25 26 28 29 30 31 32 34 35 36 36 37 39 39
1 2 2 3 2 3 3 3 3 4 5 4 4 6 5 5 5 2 2 2 2 4 3 0 3 4 6 9 10 7 5 6 5 5 6 6 5 5 4 4 5 5 6 6 7 8 8 9 10 11 12 12 13 14 14 15 15 15 14 14 14 13 12 10 9 9 9 10 10 10 11 12 14 15 16 16 17 18 19 21 23 25 27 27 28 29 30 31 31 32 33 34 35 35 36 37 37
1 1 1 0 1 2 3 3 3 4 5 5 4 4 4 5 6 7 8 5 2 3 3 2 3 3 6 9 9 8 8 7 6 6 7 7 7 7 6 6 6 6 7 7 9 9 10 11 11 12 13 13 13 14 14 14 13 13 12 12 12 11 9 8 8 8 10 11 11 12 13 14 15 16 17 17 18 20 22 23 25 27 28 29 29 29 29 30 31 32 32 33 34 34 34 35 35
4 4 5 4 1 0 1 3 2 2 4 5 5 5 4 1 3 6 5 1 1 2 3 2 2 2 6 9 9 9 9 8 7 6 7 8 9 9 8 8 7 8 9 10 11 11 12 13 13 13 13 13 13 13 13 12 12 12 12 11 10 9 8 7 8 10 12 13 13 14 14 16 17 17 18 19 21 23 24 25 27 28 29 29 28 28 28 29 30 31 32 32 33 33 33 33 32
4 5 7 8 5 3 3 4 2 1 3 4 4 5 3 1 1 3 3 3 2 2 2 3 2 2 5 7 7 8 9 8 7 6 7 8 9 10 10 10 9 10 11 11 12 13 13 13 13 13 13 13 13 12 12 12 12 12 11 10 9 8 8 9 11 13 14 14 14 15 16 17 18 19 20 21 22 24 25 26 26 27 27 26 26 26 27 28 29 30 30 31 31 31 31 31 31
Wind_Direction
231 239 251 261 257 273 268 257 258 200 246 264 118 156 126 89 113 132 129 133 132 120 95 123 137 131 115 0 22 29 30 25 20 18 98 124 139 151 149 152 154 148 144 150 153 152 158 144 133 130 122 104 83 69 60 57 59 79 94 109 122 114 106 109 107 102 93 77 60 55 56 54 53 56 60 66 77 77 70 74 77 73 67 64 67 73 73 74 73 71 76 78 78 80 84 91 95
206 215 219 224 211 252 255 235 264 184 222 222 134 125 111 129 167 148 142 132 113 122 135 142 147 146 25 350 323 348 52 42 44 72 117 132 137 153 152 153 152 147 145 146 149 154 161 150 141 136 127 110 85 72 60 57 60 78 93 108 123 117 109 109 108 104 95 77 57 54 54 53 53 53 56 62 70 71 69 69 66 69 71 69 69 73 75 77 76 73 75 78 80 81 83 87 91
181 180 173 176 205 246 256 226 255 220 220 197 125 111 124 158 160 127 116 101 107 126 140 144 153 160 241 211 199 348 74 64 74 104 132 135 146 157 151 155 151 146 145 145 149 156 165 158 148 140 133 114 92 79 64 60 63 78 92 103 124 123 113 110 112 107 98 84 58 49 50 51 52 50 54 60 68 73 73 70 63 65 72 74 69 69 74 75 76 77 75 76 79 81 84 86 88
171 171 163 172 214 227 237 222 254 252 227 178 116 128 154 164 130 100 95 98 120 136 141 153 159 183 245 325 12 14 92 86 93 126 140 135 167 163 153 155 150 144 146 147 151 159 172 163 151 141 130 115 97 82 69 65 68 80 90 97 118 129 120 113 115 111 104 95 66 46 48 46 45 48 51 57 71 78 78 74 69 68 72 71 65 67 72 71 71 74 76 76 78 80 83 85 86
169 167 161 178 228 227 246 243 261 251 258 20 111 137 163 149 123 105 104 110 131 150 154 171 163 168 228 315 339 17 88 102 114 136 140 133 175 169 155 150 149 149 148 149 152 165 178 166 152 142 128 117 103 86 77 70 71 80 89 94 106 131 128 117 118 114 110 104 87 60 49 44 46 49 49 56 72 80 84 82 79 77 76 69 62 67 70 70 70 70 73 76 79 80 81 83 86
165 164 164 192 250 285 251 236 225 223 22 2 65 128 155 133 125 120 117 116 130 159 167 184 171 138 187 192 274 70 101 121 121 141 146 147 163 165 155 148 149 153 150 152 157 172 177 167 155 144 133 122 111 97 87 77 72 79 87 90 95 122 128 120 122 119 117 115 113 68 38 42 48 49 49 56 69 79 90 94 89 85 83 78 70 69 69 71 72 70 72 74 78 79 80 82 86
156 164 173 198 234 234 239 226 221 202 60 12 34 118 147 132 131 131 132 134 139 168 184 186 191 194 148 140 164 151 157 139 133 154 166 167 158 156 155 148 149 154 154 155 161 176 176 168 158 147 140 130 122 111 99 88 76 76 84 89 89 108 125 123 125 125 122 120 132 36 24 38 44 44 45 51 63 80 94 96 89 89 90 89 85 76 71 71 73 74 74 75 76 80 81 83 87
151 166 190 206 204 205 245 234 233 98 72 49 62 69 121 139 147 149 156 162 162 172 186 182 207 226 124 129 148 161 188 173 167 169 175 172 159 157 152 148 152 157 156 155 165 178 176 170 160 151 145 137 131 123 113 102 83 78 82 91 92 100 119 125 128 132 131 131 122 44 29 32 34 35 40 46 59 77 93 97 95 99 98 96 95 83 74 74 75 75 75 77 75 79 82 83 86
171 200 207 216 215 202 237 230 185 77 106 107 123 80 96 151 161 162 165 159 158 164 174 176 206 232 119 140 102 116 200 196 183 175 175 171 163 160 150 151 159 161 157 157 169 176 176 172 163 154 150 145 138 132 125 115 94 86 83 94 98 98 107 115 125 136 143 143 97 41 29 25 29 32 35 48 61 75 89 99 102 100 98 95 93 82 76 77 77 76 76 77 77 79 81 82 85
219 215 223 226 222 205 217 217 173 108 125 113 118 147 154 162 169 173 169 155 157 157 153 164 203 234 134 140 111 134 208 199 185 176 173 169 164 161 151 154 163 163 159 159 167 174 179 174 166 159 155 153 145 139 134 127 109 97 89 95 102 103 103 103 109 116 125 111 74 51 39 34 36 39 43 63 73 80 87 98 104 96 93 88 82 77 76 77 77 79 80 82 84 85 85 85 86
219 203 240 238 215 211 211 197 170 128 126 139 129 147 165 167 176 180 170 151 158 156 146 167 197 200 193 119 115 179 214 189 181 173 170 167 162 163 155 157 166 165 163 163 166 173 182 177 173 166 161 158 150 144 139 136 126 113 100 97 102 109 105 101 99 96 94 83 77 65 56 52 48 52 60 80 88 88 89 94 102 98 94 87 82 79 79 81 80 81 81 83 86 89 91 90 89
223 187 208 225 215 216 204 178 159 134 132 166 155 152 166 169 180 182 173 156 164 167 162 184 184 176 201 131 127 195 197 178 175 172 169 167 163 165 159 163 168 166 170 167 165 173 180 181 177 172 168 162 156 149 144 144 140 131 117 105 101 105 104 102 98 90 82 73 75 70 65 60 54 57 61 76 94 97 96 96 102 103 99 92 88 87 86 84 81 79 78 80 82 88 91 91 90
239 195 203 223 232 221 156 149 137 140 164 170 148 152 163 171 188 189 181 168 173 176 166 180 163 191 204 107 132 174 179 175 176 174 171 169 167 166 163 171 170 166 178 170 168 173 173 181 180 180 176 166 165 158 150 149 149 147 137 120 109 105 101 97 94 87 77 68 69 69 65 63 59 57 59 74 98 107 108 106 107 106 101 94 88 86 87 84 81 79 77 76 78 83 87 90 90
242 243 232 225 224 210 165 156 149 179 176 137 128 147 163 178 194 194 185 177 177 159 147 169 175 205 188 129 154 166 172 179 179 176 174 170 166 169 168 174 169 170 183 173 176 175 169 178 182 191 183 171 173 169 162 157 158 157 151 141 125 115 109 97 93 87 76 68 63 64 62 63 63 59 66 81 102 111 111 112 110 106 99 92 87 83 83 82 79 77 73 73 75 80 86 92 94
242 274 259 219 179 195 192 178 171 206 159 127 136 153 165 181 185 189 194 185 153 143 152 180 196 198 177 153 144 163 180 184 184 179 174 171 167 174 173 175 172 176 186 175 181 181 173 177 182 195 190 178 177 179 181 170 171 165 159 157 145 134 127 114 100 93 84 75 63 63 61 63 63 63 75 89 105 112 113 113 110 107 99 91 87 82 78 76 73 72 69 70 73 77 85 93 99
234 256 247 214 201 199 188 179 178 213 145 128 144 157 168 176 179 193 201 190 109 166 184 187 199 201 28 84 122 165 191 186 186 180 176 176 172 177 175 177 178 181 187 178 184 190 181 178 182 194 193 187 183 187 197 189 189 180 172 167 160 153 144 137 121 106 96 85 69 65 59 58 59 64 78 92 106 113 117 116 112 107 100 92 84 76 71 69 67 66 65 66 72 75 81 87 94
229 242 235 208 209 203 175 177 177 167 121 126 147 164 176 168 179 203 195 205 165 177 188 184 201 208 276 138 152 179 191 187 187 179 180 183 177 179 181 182 182 186 190 183 187 196 190 184 184 192 194 191 188 192 203 204 203 203 199 187 176 170 162 161 151 132 115 103 79 66 57 49 45 57 70 84 101 112 120 118 117 114 106 96 82 73 66 64 62 62 62 63 69 75 78 80 86
217 221 222 214 206 189 173 179 160 117 134 143 161 175 189 168 172 193 189 204 207 186 194 205 208 209 224 193 178 188 185 186 187 182 184 187 184 183 184 186 187 188 191 189 193 197 194 193 190 193 197 192 190 196 204 212 214 219 223 218 206 188 178 181 178 176 156 130 105 61 55 43 26 36 51 68 90 107 124 123 121 124 117 103 82 68 59 59 57 56 58 58 64 71 77 80 85
214 230 220 222 195 125 127 157 96 26 145 150 164 181 198 175 166 181 194 197 195 202 201 206 205 203 217 206 187 191 187 187 188 188 190 191 191 188 185 188 190 191 193 192 195 198 196 199 195 197 205 198 192 197 204 213 219 221 229 236 230 214 202 200 199 200 195 167 139 94 77 44 3 14 24 46 79 103 132 141 134 134 126 114 92 68 56 58 55 51 51 51 51 55 67 79 88
220 235 226 207 134 95 85 123 91 40 123 152 165 177 192 171 159 175 200 196 192 211 201 196 202 195 205 204 193 193 191 189 189 192 195 197 197 193 191 193 194 194 196 195 195 198 198 200 200 201 209 207 199 199 203 207 211 212 222 237 238 228 219 217 217 214 214 202 173 153 162 231 323 350 1 13 43 117 146 170 171 173 160 155 167 120 69 55 50 45 38 36 37 38 44 49 74
207 213 252 136 131 121 117 116 105 87 113 158 159 166 183 166 163 179 199 202 197 217 209 197 206 196 196 200 194 192 193 192 191 193 196 200 201 197 196 200 203 200 200 202 200 200 199 200 201 203 207 209 206 205 205 205 205 206 212 225 236 235 229 229 228 225 224 218 203 193 197 223 277 312 336 334 307 283 217 216 216 219 203 196 219 231 231 359 8 17 12 16 22 20 8 312 295
209 203 344 39 130 132 121 121 137 126 115 153 155 169 175 156 176 193 202 217 185 198 203 194 203 194 194 204 199 189 193 196 197 197 198 202 205 202 200 202 207 208 208 209 208 208 206 203 201 204 207 208 209 209 210 212 210 208 211 218 227 234 233 233 235 233 231 225 219 216 210 212 240 266 287 296 296 288 266 256 251 253 246 236 245 261 273 293 308 316 332 359 357 340 332 314 291
231 197 82 30 37 91 116 133 170 156 143 167 166 170 161 163 191 199 212 225 106 116 183 191 199 181 187 207 210 198 196 200 203 204 204 206 208 207 203 201 205 212 216 216 215 216 211 207 205 207 210 211 212 211 212 218 218 212 215 223 223 226 232 235 239 240 237 232 229 228 219 211 225 243 249 251 266 270 259 254 255 261 265 263 264 273 280 284 292 298 308 329 322 317 317 309 300
248 209 144 92 40 90 126 147 170 159 174 175 160 167 172 191 194 186 218 228 223 198 185 191 208 196 197 215 219 215 210 207 209 212 212 211 213 212 207 202 205 214 219 220 218 219 216 212 211 213 215 215 216 215 212 217 220 217 219 228 228 228 234 237 239 242 242 239 234 233 230 222 222 230 239 241 244 252 251 251 254 259 263 268 268 269 272 273 278 283 287 291 292 301 305 304 301
240 222 129 121 67 95 128 150 161 156 185 173 166 186 182 200 195 193 225 225 226 232 214 192 205 200 208 221 223 221 220 217 215 216 216 215 215 214 211 206 204 211 219 220 219 221 222 219 216 218 218 218 221 219 217 217 221 222 222 229 233 233 235 236 238 241 243 243 238 238 239 236 232 230 235 239 241 245 246 246 250 256 260 263 265 265 267 268 271 275 277 277 279 285 289 296 298
220 169 119 127 105 99 123 132 147 159 185 177 185 189 166 197 214 236 232 218 214 227 230 223 215 198 203 212 220 222 222 222 221 220 219 218 215 214 216 215 210 211 216 218 220 222 225 225 221 221 221 222 224 221 220 220 221 224 224 229 235 236 235 235 237 238 240 241 238 239 239 239 240 236 233 236 241 244 244 245 246 251 256 260 262 263 265 266 268 270 272 274 275 278 281 286 290
147 132 114 119 108 106 134 124 144 159 165 186 200 178 151 182 209 237 214 206 218 224 230 230 225 216 207 208 215 219 223 226 225 224 222 221 220 219 221 223 220 218 218 219 223 224 224 228 227 224 223 225 226 224 224 222 223 226 225 231 237 236 234 234 238 238 236 239 239 239 238 238 241 240 237 236 241 246 247 246 247 249 252 257 260 262 263 264 266 267 269 272 274 277 280 283 286
137 133 114 114 115 121 141 130 152 176 162 189 222 174 155 155 207 233 186 196 220 220 220 226 225 220 217 218 219 221 222 225 228 226 225 226 226 226 226 228 227 226 225 226 228 227 226 230 234 229 225 227 228 228 229 228 227 228 227 231 236 236 232 231 237 240 236 237 238 239 239 240 242 242 243 242 241 247 250 250 252 252 254 255 257 260 262 263 264 266 268 270 272 274 277 280 282
156 157 142 141 155 162 166 149 163 210 181 176 218 225 200 196 215 221 194 196 206 208 213 220 225 222 216 217 221 227 224 224 228 228 229 231 231 231 230 231 232 231 231 231 230 229 228 231 236 235 229 228 229 230 232 234 232 231 232 233 235 239 237 230 234 241 240 239 237 238 240 241 243 245 247 247 244 246 250 252 253 255 257 258 259 260 260 261 263 266 269 269 271 273 276 280 281
167 190 200 161 189 192 168 158 175 213 172 169 203 252 228 209 206 197 190 199 192 197 207 211 222 222 216 215 222 230 229 227 230 229 231 232 232 230 230 232 232 230 230 232 231 230 230 231 235 237 234 231 230 231 233 236 236 235 237 238 238 241 242 237 235 238 241 243 239 238 239 241 244 245 248 250 248 248 250 251 253 255 258 261 263 262 260 260 262 265 268 269 271 273 275 278 280
171 184 218 189 208 182 149 158 180 193 163 171 208 255 257 192 170 172 188 198 189 194 204 206 214 215 218 223 227 232 232 232 232 231 231 231 231 229 228 229 229 227 227 229 231 230 232 233 235 237 239 237 235 233 234 238 239 238 239 239 240 244 247 246 243 238 239 243 243 239 238 241 244 246 248 250 249 250 252 252 254 256 259 263 266 267 265 264 264 265 267 268 270 272 274 277 280
182 179 205 206 217 157 136 160 184 201 161 182 211 240 255 162 130 158 194 197 195 203 208 207 209 210 217 226 230 232 232 234 233 231 231 228 229 228 227 227 227 226 226 229 231 232 234 236 237 239 241 242 241 239 237 238 239 239 242 240 239 244 249 250 249 245 241 241 243 242 239 239 242 244 245 247 248 250 253 255 256 256 258 263 266 267 268 269 270 271 271 270 271 273 273 275 278
196 207 208 194 207 177 145 159 186 220 156 193 221 252 259 161 120 163 199 196 199 209 214 211 215 217 218 225 231 233 233 235 234 232 230 228 227 226 225 225 227 227 226 230 232 232 235 237 238 239 241 244 245 245 242 240 240 240 242 243 241 241 247 251 251 251 247 241 240 242 242 241 243 245 245 246 247 248 251 254 257 257 255 258 263 265 267 271 273 275 276 276 276 278 278 278 280
189 213 224 185 206 202 169 156 167 194 202 211 219 240 259 234 130 157 184 190 197 208 218 220 222 225 227 228 231 235 235 236 237 234 231 229 227 226 226 226 227 228 227 229 232 234 236 239 240 240 241 243 245 247 247 245 243 241 240 241 241 240 245 251 252 252 251 247 243 241 242 244 246 248 248 249 250 250 250 252 255 256 253 253 259 263 266 270 272 274 275 276 276 277 279 281 281
185 196 212 181 208 226 206 158 151 183 212 225 216 225 248 252 223 183 174 179 198 210 215 220 225 226 227 228 232 236 237 238 238 236 234 233 230 228 228 228 228 228 228 229 231 234 236 240 242 241 241 243 244 246 248 248 245 243 242 239 240 241 241 247 250 251 252 252 248 246 246 245 247 249 249 251 254 255 254 253 254 257 256 253 256 261 265 269 270 271 273 275 275 274 274 277 278
196 194 207 196 192 218 188 104 116 189 209 221 227 232 244 250 248 236 202 185 203 222 222 224 227 228 228 229 232 235 240 242 239 237 236 235 232 230 230 230 230 229 229 229 231 233 235 238 241 242 241 242 244 245 246 246 243 241 240 239 241 244 243 245 247 250 255 255 252 249 249 248 247 247 246 248 254 257 259 258 256 257 258 254 254 258 263 269 270 268 269 273 275 273 271 272 274
211 198 207 208 198 199 135 100 102 198 225 225 229 241 251 254 253 252 238 213 212 227 231 234 233 233 233 232 234 236 242 245 242 237 236 236 235 234 233 233 232 231 230 231 233 235 235 237 240 241 241 241 242 244 244 245 244 243 242 243 245 247 248 248 249 251 255 257 256 255 252 251 249 245 242 244 251 257 260 262 260 258 257 252 252 257 262 268 269 264 263 267 271 272 271 270 270
225 211 204 213 214 180 103 99 123 144 240 237 225 245 255 257 258 255 250 240 234 234 234 236 237 237 237 234 236 239 244 247 246 242 240 239 239 237 236 235 235 234 234 235 237 237 237 237 239 240 241 241 241 242 244 246 248 248 249 251 252 250 249 251 256 258 258 257 258 260 257 251 247 243 239 242 251 255 258 262 262 260 258 254 256 259 258 258 264 263 261 263 267 270 273 272 269
218 220 212 221 200 144 111 117 128 144 231 242 225 260 261 259 259 254 247 244 244 242 239 239 239 239 239 237 237 238 242 246 248 247 245 243 241 239 238 237 236 237 237 238 238 238 237 236 236 238 239 239 240 241 243 246 248 250 252 254 255 254 251 252 256 258 258 257 255 257 259 256 252 248 244 243 247 250 254 260 260 259 261 259 261 264 258 254 259 264 264 266 268 268 269 269 269
216 217 214 211 158 168 187 150 143 160 235 294 312 287 273 264 258 252 243 239 243 243 239 239 236 236 236 234 234 232 235 244 248 247 247 245 243 241 239 237 237 237 238 238 238 237 237 236 236 237 238 239 240 240 242 245 247 249 250 251 250 249 248 250 251 250 250 253 255 256 259 259 257 255 252 248 245 246 250 254 255 258 263 263 263 266 263 258 260 266 269 272 272 270 268 267 270
216 230 231 213 158 173 51 120 151 176 206 265 298 283 272 252 242 245 235 227 237 236 234 238 237 238 239 236 237 236 237 243 245 245 246 245 244 243 241 239 239 239 239 240 240 239 238 238 238 237 238 240 240 240 241 242 244 246 246 246 245 242 242 244 247 249 247 249 254 259 262 260 255 253 249 246 245 245 246 246 249 256 262 263 263 265 266 265 267 271 274 276 276 274 272 270 269
202 217 237 267 173 148 102 129 160 217 216 195 258 266 274 232 222 234 216 199 229 225 226 240 241 240 241 242 244 245 246 247 247 247 248 247 245 244 242 240 240 241 242 243 243 243 242 240 239 238 238 239 239 239 239 240 242 244 244 245 245 244 245 245 247 251 252 251 252 256 260 258 254 254 252 248 246 244 244 244 246 250 256 259 259 261 265 266 268 272 274 276 279 279 276 273 271
209 200 204 141 179 146 134 158 189 247 227 138 214 250 274 249 216 219 191 202 236 222 220 239 240 231 230 241 247 248 249 250 250 250 250 250 248 246 244 243 242 243 244 245 245 244 243 242 240 238 238 237 237 237 237 238 239 241 244 245 248 249 250 251 253 253 252 251 251 249 249 250 251 252 254 253 250 247 250 251 248 245 250 257 261 263 264 265 269 273 273 272 275 278 275 273 274
216 39 173 158 178 177 161 179 220 268 45 147 208 236 276 272 251 161 157 234 253 239 232 237 235 222 216 232 242 244 246 248 248 249 248 249 249 247 246 245 244 244 244 244 244 243 243 242 240 239 238 237 236 235 236 238 238 240 243 246 248 251 251 253 257 256 251 249 250 248 246 247 247 245 246 250 253 255 256 256 254 250 252 261 267 266 265 266 268 270 268 266 270 272 271 272 274
187 33 107 132 150 175 178 204 223 302 330 234 198 176 257 267 236 154 169 245 253 246 243 236 219 200 195 215 230 238 244 244 245 246 246 246 247 246 244 243 244 243 243 244 244 244 242 241 239 238 237 236 234 233 235 238 239 240 243 246 249 250 250 250 253 255 254 252 251 250 248 247 248 250 253 258 262 264 263 261 258 257 259 264 266 265 265 266 265 264 265 266 269 271 272 275 275
146 155 108 97 101 108 155 220 211 198 255 248 184 174 244 273 243 191 180 227 240 242 242 219 156 152 169 191 215 239 250 253 252 250 249 247 246 246 243 241 241 241 245 247 246 245 244 243 240 238 236 236 235 235 237 240 240 240 242 245 248 249 248 247 247 249 250 251 251 251 251 250 250 254 258 261 262 263 264 264 261 261 263 264 265 266 266 267 266 265 268 270 268 268 270 274 275
141 154 118 104 114 109 128 217 207 235 243 245 141 162 252 281 259 211 183 208 237 242 231 136 112 127 146 153 181 264 274 273 268 261 257 252 249 248 245 242 239 239 242 245 244 244 244 243 242 240 238 236 236 237 238 239 239 239 240 242 245 247 245 243 243 245 245 246 247 248 250 251 251 252 253 255 257 258 260 265 268 268 268 268 269 270 271 272 273 272 271 271 269 266 266 269 272
149 158 140 123 124 142 189 173 182 238 236 181 49 359 250 245 245 191 90 15 17 223 193 124 116 123 121 124 94 332 310 294 283 273 265 256 249 246 243 239 233 232 235 238 242 243 243 242 240 239 238 236 236 236 235 235 236 236 237 240 243 241 239 239 241 243 244 246 246 247 248 248 249 250 251 252 254 256 258 263 267 268 267 268 271 274 277 278 280 279 276 273 272 269 268 269 269
203 172 159 167 165 169 208 193 195 231 223 99 78 337 247 244 253 253 268 280 253 200 200 153 106 114 109 125 332 337 323 310 300 286 272 256 246 241 237 235 230 229 233 237 240 239 239 239 237 235 234 234 233 232 231 231 233 234 236 238 238 234 233 236 239 241 243 244 245 246 245 244 246 248 249 252 255 258 260 261 262 264 266 268 272 275 277 278 278 278 276 274 274 273 272 272 272
197 180 177 193 178 177 207 200 206 225 179 73 177 238 259 261 265 255 258 267 1 114 221 246 257 251 267 274 276 314 324 320 315 292 270 236 223 218 218 218 219 223 227 229 229 228 230 231 230 228 227 229 229 227 227 228 230 233 234 233 230 229 231 234 238 241 241 242 243 243 243 243 245 247 249 253 255 258 260 261 263 266 268 270 271 272 273 274 275 275 274 274 274 275 275 275 275
193 189 193 212 204 210 209 201 213 197 113 114 187 206 236 246 354 270 260 265 275 263 245 252 258 257 269 269 255 280 318 317 323 279 206 183 185 179 191 198 201 211 214 215 218 218 220 219 219 221 220 221 222 222 224 225 228 230 229 226 225 227 231 234 237 239 238 238 239 241 241 243 247 251 256 259 262 263 265 267 270 271 271 271 272 273 273 273 274 274 275 275 275 276 276 276 276
192 8 237 233 249 66 135 130 91 109 55 175 187 235 247 262 307 281 254 225 217 236 229 238 250 250 264 255 211 193 266 265 212 201 168 160 175 172 182 191 191 197 199 201 203 202 206 207 208 211 212 213 215 216 219 221 222 223 221 221 223 227 230 232 234 234 233 235 238 243 246 251 258 265 273 276 278 277 276 275 275 276 277 278 279 281 282 282 280 278 278 278 278 278 278 277 277
162 163 186 206 17 71 114 151 92 56 279 219 174 239 261 274 283 264 243 218 182 166 177 208 218 225 252 238 194 183 204 196 173 184 173 165 172 172 175 180 179 178 176 178 182 186 190 193 196 200 202 205 207 209 211 213 214 215 216 219 222 226 227 229 231 230 232 236 242 251 260 268 274 279 280 281 281 282 282 283 284 286 288 289 291 292 293 294 292 288 283 280 279 279 278 279 279
132 179 172 144 42 32 158 237 173 196 253 242 179 230 258 261 258 229 197 236 196 148 151 222 212 221 230 203 188 187 191 183 167 173 182 182 178 176 176 170 161 156 160 164 169 175 180 183 188 193 195 199 201 203 206 208 211 213 215 218 219 221 222 222 225 227 233 243 252 262 271 274 275 275 276 278 282 286 291 297 300 301 302 301 301 301 300 300 299 296 291 285 281 279 278 279 280
26 236 170 132 206 210 183 214 232 218 236 253 213 217 242 238 233 224 189 229 205 144 131 163 186 198 200 185 182 186 185 178 171 173 185 194 192 187 179 169 163 159 160 164 166 171 178 182 185 188 190 194 196 200 203 205 208 209 209 210 211 213 213 214 220 229 242 253 258 262 264 267 270 274 280 285 291 295 300 304 306 306 306 306 305 304 302 301 299 298 294 289 286 282 281 282 282
22 280 184 109 270 230 192 199 233 238 236 253 238 212 231 223 215 229 236 248 232 143 114 118 145 155 180 180 175 178 183 185 188 189 193 198 199 199 193 184 181 176 173 174 176 179 184 186 188 189 191 193 195 198 201 202 202 201 201 202 202 203 205 212 227 242 251 254 256 260 264 271 277 283 289 294 298 303 304 304 304 304 304 304 304 303 302 300 299 297 295 291 289 286 285 286 285
173 183 177 182 187 16 253 221 224 259 241 247 249 245 248 208 182 215 226 252 84 98 88 122 137 135 167 173 174 179 187 194 203 209 211 209 202 200 199 196 193 189 187 188 190 191 191 191 192 193 193 195 196 198 198 197 195 193 193 193 194 200 209 226 242 248 252 254 258 266 273 279 285 290 295 300 303 303 302 301 301 301 301 302 302 301 300 299 298 297 295 294 292 291 290 290 290
182 188 187 190 177 152 198 212 181 207 242 246 259 264 259 115 133 204 154 102 106 103 98 131 146 164 160 162 171 181 190 202 213 221 225 223 213 205 200 197 196 196 197 198 198 197 195 193 192 191 192 192 192 192 190 188 186 186 187 190 198 212 226 239 247 250 255 261 267 274 279 285 291 295 299 301 301 299 298 297 297 298 298 298 298 297 297 296 296 296 296 296 296 296 296 296 295